Voltar ao catálogo

UNKNOWN PAYLOAD

AtivoSSO
NORAD 58927·DEBRIS·🇨🇳 China
Este nome de satélite ainda não foi confirmado por fontes oficiais.

Lançado Feb 3, 2024 de South China Sea Launch Area

Loading…

Próximas Passagens (próximas 24 horas)

TLE

AtualizadoSource: Space-Track

Época: Sep 14, 2026, 11:11 UTC

1 58927U 24024L   26257.46654412  .00029920  00000-0  86710-3 0  9994
2 58927  97.2982 323.6679 0005054 205.8167 154.2826 15.35494528122042

Acompanhe UNKNOWN PAYLOAD em tempo real com AllMySat

Download on the App Store